Terug naar catalogus

COSMOS 2344 DEB

ActiefUNKNOWN
NORAD 24843·DEBRIS·🇷🇺 Russia

Gelanceerd Jun 6, 1997 vanaf Baikonur Cosmodrome

Loading…

Volgende Passages (komende 24 uur)

TLE

VersSource: Space-Track

Epoch: Sep 14, 2026, 07:58 UTC

1 24843U 97028G   26257.33195587 -.00000115  00000-0 -73045-3 0  9991
2 24843  63.3209  21.2860 1077785  46.9865 344.3225 11.10065567184354

Volg COSMOS 2344 DEB in realtime met AllMySat

Download on the App Store